Tracking 26218 objects as of 26-Sep-2022
HD Live streaming from Space Station
objects crossing your sky now

COSMOS 1030 DEB

Track COSMOS 1030 DEB now!


NORAD ID: 39447
Int'l Code: 1978-083T
Perigee: 3,288.3 km
Apogee: 37,129.7 km
Inclination: 66.1 °
Period: 718.8 minutes
Semi major axis: 26579 km
RCS: Unknown
Launch date: September 6, 1978
Source: Commonwealth of Independent States (former USSR) (CIS)
Launch site: PLESETSK MISSILE AND SPACE COMPLEX (PKMTR)

Note: This is SATELLITE DEBRIS
aabbcc
Your satellite tracking list
Your tracking list is empty




NASA's NSSDC Master Catalog

Two Line Element Set (TLE):
1 39447U 78083T   22256.59010752 -.00000816  00000-0  00000+0 0  9994
2 39447  66.1206 322.9029 6365949  11.6796 358.1221  2.00341558 64492
Source of the keplerian elements: AFSPC